CAPE
12 10 5 6 5 5 6 6 7 5 4 7 6 5 3 5 6 6 5 4 3 4 4 3 5 5 4 3 2 1 0 0 0 0 0 0 0 0 0 0 366 1995 1993 668 342 436 691 542 584 1516 1184 886 793 590 542 786 530 568 399 340 243 236 268 472 425 461 401 390 478 598 753 878 762 1055 1162 1632 1226 2043 1351 1460 1867 1480 1846 1676 1791 798 1245 1146
9 12 8 6 5 6 6 6 5 3 4 6 5 3 3 4 6 6 5 4 4 5 4 4 4 4 4 2 1 0 0 0 0 0 0 0 0 0 0 0 0 2274 1310 21 32 46 316 521 644 1218 992 839 1528 804 596 674 850 523 482 357 314 244 296 600 661 485 535 479 391 509 510 507 685 962 1183 1037 1077 1792 1160 1497 1662 1410 1516 923 1274 856 1314 934
7 8 9 5 6 7 7 7 4 3 4 5 3 2 3 3 5 5 3 4 4 3 3 4 4 5 4 2 1 0 0 0 0 0 0 0 0 0 5 0 0 1859 263 25 0 0 0 405 702 1038 868 844 1000 692 581 703 542 642 558 456 328 342 521 480 849 646 479 716 597 505 536 571 780 1052 1404 1252 989 1582 1376 1364 1251 1322 1580 1110 1344 1455 980 914
5 5 5 3 5 6 7 6 4 3 5 4 3 3 3 3 2 3 4 4 3 3 4 4 5 4 4 2 0 0 0 0 0 0 0 4 0 0 182 39 11 1325 178 4 0 0 182 369 812 965 843 673 698 1312 648 1008 508 626 493 398 429 584 572 748 753 725 836 939 576 611 701 742 680 951 893 1432 854 1308 1340 1372 1189 1159 1390 1238 1408 1950 966 822
10 9 5 4 10 6 7 5 3 5 5 3 2 4 4 1 2 3 4 3 3 4 4 6 3 2 3 1 0 0 0 0 0 0 37 216 30 0 208 424 252 482 37 18 0 0 546 818 852 890 881 691 1122 962 843 1026 693 667 584 537 517 574 671 771 758 898 904 996 608 485 500 474 890 594 604 1106 1086 1146 1252 1270 1456 1122 1226 1008 1628 1804 996 817
6 4 7 9 6 6 4 4 3 4 4 2 2 3 2 2 2 2 3 4 4 4 4 2 3 2 2 0 0 0 0 0 0 0 1345 1027 259 0 363 742 691 24 0 8 186 413 467 648 743 906 787 854 968 758 1006 970 1046 690 642 689 677 721 775 944 754 1297 1119 919 698 484 389 726 592 710 532 976 1126 1157 1105 1427 1267 991 998 1080 1470 1353 966 705
9 6 8 10 8 4 2 3 3 2 1 1 3 2 2 2 2 2 2 2 2 3 2 2 2 2 1 0 0 0 0 0 0 0 553 911 296 58 1287 920 737 0 0 0 353 358 448 562 730 848 806 922 800 745 761 1490 1042 666 641 684 702 966 969 887 568 1040 846 649 547 453 648 488 643 662 717 868 1162 1155 1186 1614 1216 1161 1026 1130 1026 1069 766 656
5 6 6 6 5 4 2 4 4 2 1 2 3 2 1 2 0 1 0 0 0 1 2 2 2 2 3 0 0 0 0 0 0 592 967 468 238 902 1559 625 30 0 0 0 6 145 440 572 826 1027 908 677 1170 672 1182 684 1175 763 704 743 825 878 855 648 602 839 759 959 794 714 578 637 521 565 838 768 1024 892 957 1510 1162 1213 1065 1162 918 895 643 463
10 8 6 6 3 3 4 3 1 2 1 2 4 1 1 0 0 1 1 1 1 1 1 2 1 0 2 0 0 0 0 0 0 683 510 133 15 360 132 118 1 0 0 0 0 147 330 519 637 541 785 734 1052 651 943 568 383 707 696 772 868 910 1020 772 915 933 924 1239 880 495 629 623 662 706 508 837 703 858 1158 1244 1179 1395 835 791 1017 836 728 588
4 4 6 4 6 5 10 7 3 2 2 4 4 2 1 0 0 0 1 1 1 1 2 2 1 1 0 0 0 0 0 0 354 441 49 0 33 0 0 0 0 0 0 0 0 0 99 455 497 489 1039 682 1002 669 1184 538 403 1178 1100 817 659 655 740 868 890 987 655 812 885 680 535 593 478 384 389 593 474 966 1250 1118 1078 1315 1096 901 899 705 660 717
8 9 7 8 7 11 5 6 3 2 3 4 2 3 1 0 1 1 0 1 0 0 1 2 4 0 0 0 0 0 0 0 31 76 0 0 0 0 0 0 0 0 0 0 107 0 352 453 403 628 449 609 685 938 786 842 995 1379 1202 1099 914 848 940 1105 945 1032 728 743 588 512 498 433 468 429 432 526 525 1087 1117 999 984 1298 1068 732 572 684 695 552
9 8 8 7 12 12 7 5 3 2 2 5 2 1 1 1 0 0 0 1 0 0 1 2 2 0 0 0 0 0 0 0 0 0 0 0 0 0 0 0 0 0 0 0 355 8 388 493 431 412 485 870 759 1133 1054 974 1014 1143 1120 899 824 866 861 1515 1244 1223 810 597 557 554 565 432 490 430 373 577 671 1323 925 924 745 1252 1030 486 680 1221 775 637
8 8 8 11 14 17 8 5 7 4 6 4 2 1 1 0 0 1 1 0 0 0 0 0 0 0 0 0 0 0 0 0 0 0 0 0 0 0 0 0 0 0 0 0 346 524 203 423 494 503 666 660 1427 471 1221 498 812 860 1077 917 949 670 541 1030 931 907 628 479 459 388 180 359 480 440 454 441 758 1125 860 1045 762 1104 991 671 564 726 596 464
9 10 14 17 16 9 6 4 4 6 5 5 2 1 0 0 0 1 0 0 0 0 0 1 5 0 0 0 0 0 0 0 0 0 0 0 0 0 0 0 0 0 0 0 319 574 530 452 439 436 780 696 667 1039 852 1471 1197 786 888 1037 695 344 278 890 946 1053 833 747 440 450 329 116 361 464 341 511 624 1010 914 952 784 809 833 790 724 542 292 324
8 11 13 18 14 8 8 9 9 9 10 6 3 0 0 0 0 0 0 0 0 0 1 4 1 0 0 0 0 0 0 0 0 0 0 0 0 0 0 0 0 0 0 0 428 515 524 517 506 484 374 964 850 811 679 744 819 836 484 233 179 18 1 754 958 516 455 716 722 572 67 184 259 343 356 602 756 615 731 788 511 379 306 612 652 560 430 340
8 13 18 16 12 13 12 12 12 11 14 7 2 1 0 0 0 0 0 0 0 0 1 0 0 0 0 0 0 0 0 0 0 0 0 0 0 0 0 0 0 0 0 0 590 629 590 598 537 487 586 865 979 606 427 324 190 934 484 120 254 66 108 353 942 647 837 917 726 371 234 55 69 201 570 610 656 862 769 520 516 512 242 475 586 254 297 259
16 14 14 16 14 14 12 10 12 12 10 4 3 0 0 0 0 0 0 0 0 0 0 0 0 0 0 0 0 0 0 0 0 0 0 0 0 0 0 0 0 0 0 0 712 591 581 404 403 264 147 506 744 631 215 37 77 265 262 211 290 227 251 228 470 592 483 354 320 180 207 215 226 527 533 651 557 693 804 688 374 290 153 477 481 492 383 308
13 15 16 15 14 13 11 11 9 10 7 3 2 0 0 0 0 0 0 0 0 0 0 0 0 0 0 0 0 0 0 0 0 0 0 0 0 0 0 0 0 0 0 575 446 0 0 134 82 11 20 59 113 347 140 101 96 99 153 153 27 163 282 270 97 382 264 365 304 132 142 167 211 375 414 611 791 624 909 723 420 608 865 278 412 217 119 341
14 14 16 12 12 12 13 9 12 9 6 4 0 0 0 0 0 0 0 0 0 0 0 0 0 0 0 0 0 0 0 0 0 0 0 0 0 0 0 0 0 0 0 119 293 0 14 66 0 6 7 0 27 47 86 146 180 244 340 163 150 8 159 314 311 231 253 83 64 138 191 161 191 308 506 585 615 870 911 774 1259 1034 912 83 334 27 15 1
11 11 11 9 12 11 8 10 11 10 9 3 0 0 0 0 0 0 0 0 0 0 0 0 0 0 0 0 0 0 0 0 0 0 0 0 0 127 478 495 496 0 0 0 34 17 45 30 0 3 4 9 20 148 125 136 222 330 628 536 314 147 263 919 204 271 60 4 66 42 3 257 247 377 504 623 983 806 643 626 947 802 596 69 31 0 1 0
9 9 8 9 9 13 8 10 13 10 10 3 0 0 0 0 0 0 0 0 0 0 0 0 0 0 0 0 0 0 0 0 0 0 0 0 0 184 507 603 523 438 100 58 70 66 101 5 2 8 6 20 45 64 232 252 312 492 410 351 232 362 93 471 170 68 0 0 60 86 228 242 236 142 375 794 489 522 449 527 1066 650 620 439 0 0 0 0
8 6 9 6 9 10 6 5 6 7 5 4 0 0 0 0 0 0 0 0 0 0 0 0 0 0 0 0 0 0 0 0 0 0 0 0 18 116 415 434 621 521 239 36 45 36 19 18 50 32 39 27 22 26 76 196 296 404 188 267 154 153 339 320 29 102 82 30 64 391 50 96 12 665 524 917 403 638 572 974 1180 934 701 430 36 0 0 0
7 7 4 9 8 8 4 6 3 5 1 0 0 0 0 0 0 0 0 0 0 0 0 0 0 0 0 0 0 0 0 0 0 0 3 228 263 408 371 262 0 26 14 19 6 1 0 0 26 36 23 47 56 54 24 228 272 236 33 24 105 110 160 114 468 519 661 562 17 310 340 349 1042 904 1168 869 1079 147 490 970 1014 980 1040 811 445 14 14 0
5 4 7 6 8 4 2 1 2 1 0 0 0 0 0 0 0 0 0 0 0 0 0 0 0 0 0 0 0 0 0 0 0 0 20 297 297 492 458 233 0 0 0 20 26 2 10 30 3 3 19 20 40 52 56 188 184 199 161 62 55 77 99 62 202 631 734 563 458 384 92 86 584 646 522 1244 458 61 598 532 372 337 349 382 571 488 5 0
3 3 3 5 5 3 0 0 0 0 0 0 0 0 0 0 0 0 0 0 0 0 0 0 0 0 0 0 0 0 0 0 0 0 46 39 244 425 548 232 5 0 0 1 56 33 26 31 7 0 0 8 47 4 169 150 43 28 166 16 83 54 522 324 480 400 167 178 266 159 11 67 310 530 560 940 906 411 262 100 136 167 102 123 287 368 99 0
0 4 3 3 4 0 0 0 0 0 0 0 0 0 0 0 0 0 0 0 0 0 0 0 0 0 0 0 0 0 0 0 0 35 74 24 152 342 354 314 0 0 0 0 8 0 0 6 0 0 0 0 10 6 8 39 1 12 39 142 148 214 323 331 366 115 55 245 236 265 24 2 367 327 602 601 717 220 123 118 109 137 156 264 255 319 135 0
0 0 3 1 0 0 0 0 0 0 0 0 0 0 0 0 0 0 0 0 0 0 0 0 0 0 0 0 0 0 0 0 0 31 92 42 186 67 30 0 14 5 10 43 4 0 0 0 0 0 0 0 0 0 6 62 7 21 0 1 144 263 355 387 325 58 70 737 258 314 80 32 4 25 86 669 448 473 554 516 307 211 172 293 236 208 159 0
0 0 1 1 0 0 0 0 0 0 0 0 0 0 0 0 0 0 0 0 0 0 0 0 0 0 0 0 0 0 0 0 0 37 136 46 32 43 6 0 1 4 20 4 0 0 0 0 0 0 0 0 0 0 0 55 15 1 0 111 310 418 292 351 237 276 552 386 310 80 180 19 0 26 46 192 142 94 216 422 375 199 275 351 337 185 234 13
0 0 0 0 0 0 0 0 0 0 0 0 0 0 0 0 0 0 0 0 0 0 0 0 0 0 0 0 0 0 0 0 0 17 112 13 6 0 2 0 0 0 0 0 0 0 0 0 0 0 0 0 0 0 0 0 0 0 45 253 445 486 449 321 451 560 572 182 236 214 184 48 43 48 75 145 23 0 11 203 230 130 189 418 402 319 300 103
0 0 0 0 0 0 0 0 0 0 0 0 0 0 0 0 0 0 0 0 0 0 0 0 0 0 0 0 0 0 0 0 0 64 63 9 1 0 0 0 0 0 0 0 0 0 0 0 0 0 0 0 0 0 0 0 0 0 291 387 396 521 514 435 491 419 38 1 0 304 287 84 102 218 151 180 131 2 10 46 82 125 226 379 434 377 325 35
0 0 0 0 0 0 0 0 0 0 0 0 0 0 0 0 0 0 0 0 0 0 0 0 0 0 0 0 0 0 0 0 0 93 48 5 0 0 0 0 0 0 0 0 0 0 0 0 0 0 0 0 0 0 0 0 0 0 0 433 514 582 569 432 356 219 25 2 12 0 354 132 6 28 110 134 118 63 83 138 104 282 348 361 335 345 271 40
0 0 0 0 0 0 0 0 0 0 0 0 0 0 0 0 0 0 0 0 0 0 0 0 0 0 0 0 0 0 0 0 0 75 32 5 0 0 0 0 0 0 0 0 0 0 0 0 0 0 0 0 0 0 0 0 0 0 0 0 8 233 317 23 40 193 47 0 137 243 342 205 62 1 135 158 158 153 146 187 284 363 374 348 268 270 200 48
0 0 0 0 0 0 0 0 0 0 0 0 0 0 0 0 0 0 0 0 0 0 0 0 0 0 0 0 0 0 0 0 0 0 119 15 0 0 0 0 0 0 0 0 0 0 0 0 0 0 0 0 0 0 0 0 9 0 0 0 0 86 30 0 68 80 97 83 27 41 346 169 40 46 43 143 150 175 225 170 153 275 336 296 249 220 181 60
0 0 0 0 0 0 0 0 0 0 0 0 0 0 0 0 0 524 0 0 0 0 0 0 0 0 0 0 0 0 0 0 0 0 81 0 0 0 0 0 0 0 0 0 0 0 0 0 0 0 0 0 0 0 0 0 0 0 0 0 0 15 84 11 92 4 17 1 85 367 269 53 1 0 0 51 92 125 203 197 131 134 170 188 203 190 202 72
0 0 0 0 0 0 0 0 0 0 0 0 0 0 0 0 0 0 0 0 0 0 0 0 0 0 0 0 0 0 0 0 0 0 0 0 0 0 0 0 0 0 0 0 0 0 0 0 0 0 0 0 0 0 0 0 0 0 0 0 0 0 0 0 4 3 39 27 47 253 51 116 0 0 0 4 52 92 203 166 101 83 53 48 86 178 239 110
0 0 0 0 0 0 0 0 0 0 0 0 0 0 0 0 0 0 0 0 0 0 0 0 0 0 0 0 0 0 0 0 0 0 0 0 0 0 0 0 0 0 0 0 0 0 0 0 0 0 0 0 0 0 0 0 0 0 0 11 11 1 11 4 126 235 221 0 21 65 6 0 0 0 0 3 29 59 137 151 93 134 152 138 183 251 286 223
0 0 0 0 0 0 0 0 0 0 0 0 0 0 0 0 0 0 14 0 0 0 0 0 0 0 0 0 0 0 0 0 0 0 0 0 0 0 0 0 0 0 0 0 0 0 0 0 0 0 0 0 0 0 0 0 0 0 0 0 0 148 272 12 41 18 23 1 39 179 22 0 0 1 0 7 12 24 81 101 166 270 261 244 256 322 333 352
0 0 0 0 0 0 0 0 0 0 0 0 0 80 4 0 0 0 0 0 0 0 0 0 0 0 0 0 0 0 0 0 0 0 0 0 0 0 0 0 0 0 0 0 0 0 0 0 0 0 0 0 0 0 0 0 0 0 0 0 89 55 103 46 7 12 40 2 2 0 0 0 0 0 0 1 22 41 59 90 253 394 380 351 342 370 381 452
0 0 0 0 0 0 0 0 0 0 0 0 0 0 0 0 0 0 0 0 0 0 0 0 0 0 0 0 0 0 0 0 0 0 0 0 0 0 0 0 0 0 0 0 0 0 0 0 0 0 0 0 0 0 0 0 0 0 0 0 485 32 64 84 26 13 0 0 6 0 0 0 0 0 0 12 4 60 132 246 356 472 472 433 396 371 372 446
0 0 0 0 0 0 0 0 0 0 0 0 0 0 0 0 0 0 0 0 0 0 0 0 0 0 0 0 0 0 0 0 0 0 0 0 0 0 0 0 0 0 0 0 0 0 0 0 0 0 0 0 0 0 0 0 0 0 0 0 70 18 147 12 63 121 13 36 0 0 0 0 0 0 0 5 14 38 337 407 435 466 486 458 393 375 421 486
0 0 0 0 0 0 0 0 0 0 0 0 0 0 0 0 0 0 0 0 0 0 0 0 0 0 0 0 0 0 0 0 0 0 0 0 0 0 0 0 0 0 0 0 0 0 0 0 0 0 0 0 0 0 0 0 0 0 0 0 0 40 270 231 182 317 131 0 18 0 0 0 0 1 0 0 0 34 153 444 505 483 455 431 371 362 412 552
0 0 0 0 0 0 0 0 0 0 0 0 0 0 0 0 0 0 0 0 0 0 0 0 0 0 0 0 0 0 0 0 0 0 0 0 0 0 0 0 0 0 0 0 0 0 0 0 0 0 0 0 0 0 0 0 0 0 0 0 2 18 0 0 20 280 56 1 0 0 0 0 0 0 0 3 8 34 236 174 361 487 486 346 278 250 352 550
0 0 0 0 0 0 0 0 0 0 0 0 0 0 0 0 0 0 0 0 0 0 0 0 0 0 0 0 0 0 0 0 0 0 0 0 0 0 0 0 0 0 0 0 0 0 0 0 0 0 0 0 0 0 0 0 0 0 0 28 70 190 1 0 0 195 0 129 2 0 0 0 0 0 0 6 2 0 101 478 451 450 499 243 300 324 528 640
0 0 0 0 0 0 0 0 0 0 0 0 0 0 0 0 0 0 0 0 0 0 0 0 0 0 0 0 1 0 0 0 0 0 0 0 0 0 0 0 0 0 0 0 0 0 0 0 0 0 0 0 0 0 0 0 0 0 0 1 20 16 19 145 114 0 7 42 3 0 1 0 0 0 0 0 0 12 0 306 469 523 488 456 495 478 450 677
0 0 0 0 0 0 0 0 0 0 0 0 0 0 0 0 0 0 0 0 0 0 0 0 0 0 0 0 1 1 0 0 0 0 36 0 7 0 0 0 0 0 0 0 14 0 0 0 0 0 0 0 0 0 0 0 0 0 0 11 150 161 189 93 181 8 0 0 83 0 0 0 3 5 0 0 0 6 349 58 94 55 495 613 633 619 619 539
0 0 0 0 0 0 0 0 0 0 0 0 0 0 0 0 0 0 0 0 0 0 0 0 0 0 0 0 0 0 1 0 0 0 2 42 17 40 0 0 0 0 28 607 492 0 0 0 0 1 0 0 0 0 0 0 0 0 0 0 160 174 57 10 27 0 0 1 49 0 0 0 4 0 0 0 1 3 0 31 234 420 754 492 647 761 746 725
0 0 0 0 0 0 0 0 0 0 0 0 0 0 0 0 0 0 0 0 0 0 0 0 0 0 0 0 0 0 12 0 0 0 0 1 11 46 5 0 682 1744 2018 1262 329 0 0 0 0 0 0 0 2 0 0 0 0 0 0 0 0 18 31 96 46 149 0 3 14 0 68 1 0 0 0 0 0 0 0 1 302 1364 1029 44 529 760 826 833
0 0 0 0 0 0 0 0 0 0 0 0 0 0 0 0 0 0 0 0 0 0 0 0 0 0 0 0 0 0 0 0 0 3 0 1 45 11 14 6 49 220 691 26 0 0 0 0 0 0 0 2 4 0 0 0 0 0 0 0 0 0 5 38 25 86 10 3 0 0 16 0 0 0 0 0 1 34 154 229 223 1374 1083 498 566 736 707 759
0 0 0 0 0 0 0 0 0 0 0 0 0 0 0 0 0 0 0 0 0 0 0 0 0 0 0 0 0 0 0 0 0 0 0 0 18 44 53 11 13 66 6 0 0 0 0 0 0 0 0 0 0 0 0 0 0 0 0 0 1 0 10 54 79 146 106 14 0 0 12 0 0 0 0 0 6 149 263 697 1508 1395 977 692 623 813 850 798
0 0 0 0 0 0 0 0 0 0 0 0 0 0 0 0 0 0 0 0 0 0 0 0 0 0 0 0 0 0 0 0 0 0 0 0 62 40 66 28 14 1 0 22 0 0 0 0 227 0 0 0 0 0 0 0 2 0 0 4 0 0 0 88 152 165 112 90 3 0 14 8 0 0 0 0 3 508 1080 1470 1524 1301 1119 889 686 714 714 747
0 0 0 0 0 0 0 0 0 0 0 0 0 0 0 0 0 0 0 0 0 0 0 0 0 0 0 0 0 0 0 0 0 0 0 0 93 63 60 108 32 0 0 71 51 0 0 0 0 0 0 3 4 3 4 2 6 4 1 2 2 0 0 0 0 184 165 140 24 6 13 3 0 0 0 0 244 1104 1377 1352 1534 1407 1191 926 824 794 924 1184
0 0 0 0 0 0 0 0 0 0 0 0 0 0 0 0 0 0 0 0 0 0 0 0 0 0 0 0 0 0 0 0 0 0 0 0 0 73 87 97 72 0 2 73 42 0 0 0 0 0 0 0 0 18 16 18 9 2 16 82 14 7 0 0 0 98 141 97 14 5 7 0 0 0 35 117 552 1100 1279 1353 1393 1391 1241 996 921 1023 1317 1437
Wind_Speed
nan nan nan nan nan nan nan nan nan nan nan nan nan nan nan nan nan nan nan nan nan nan nan nan nan nan nan nan nan nan nan nan nan nan nan nan nan nan nan nan 29 29 31 22 19 17 14 15 15 18 13 10 10 12 11 9 9 9 9 9 10 11 9 7 6 8 7 5 3 8 11 7 3 5 5 7 7 6 7 7 7 10 12 13 12 11 11 11
nan nan nan nan nan nan nan nan nan nan nan nan nan nan nan nan nan nan nan nan nan nan nan nan nan nan nan nan nan nan nan nan nan nan nan nan nan nan nan nan nan 29 29 nan nan nan 16 14 14 20 14 10 12 11 13 9 10 10 9 9 11 11 11 11 9 9 9 2 1 3 10 10 2 8 5 4 4 5 6 5 7 10 11 12 12 5 10 8
nan nan nan nan nan nan nan nan nan nan nan nan nan nan nan nan nan nan nan nan nan nan nan nan nan nan nan nan nan nan nan nan nan nan nan nan nan nan nan nan nan 26 24 nan nan nan nan 18 17 18 14 10 13 13 13 10 11 11 10 12 12 12 10 12 14 14 13 8 5 2 7 9 9 9 10 3 6 4 5 8 7 10 9 5 5 6 7 9
nan nan nan nan nan nan nan nan nan nan nan nan nan nan nan nan nan nan nan nan nan nan nan nan nan nan nan nan nan nan nan nan nan nan nan nan nan nan 23 nan nan 22 16 nan nan nan 10 12 14 18 13 10 10 12 13 12 13 13 12 13 13 13 11 11 14 13 14 12 5 2 9 10 7 10 9 8 10 2 3 3 5 11 11 6 5 10 7 8
nan nan nan nan nan nan nan nan nan nan nan nan nan nan nan nan nan nan nan nan nan nan nan nan nan nan nan nan nan nan nan nan nan nan nan 21 nan nan 24 23 24 20 nan nan nan nan 10 12 13 14 10 9 9 10 12 14 14 15 18 16 15 12 10 13 14 13 14 13 7 5 4 5 16 12 7 8 9 7 4 5 5 2 6 7 5 10 9 7
nan nan nan nan nan nan nan nan nan nan nan nan nan nan nan nan nan nan nan nan nan nan nan nan nan nan nan nan nan nan nan nan nan nan 23 21 29 nan 24 24 24 nan nan nan 12 10 10 9 12 10 8 7 10 13 10 17 16 14 16 18 20 18 13 12 13 15 22 22 19 9 2 12 8 11 8 11 11 19 14 11 8 2 2 3 7 10 8 6
nan nan nan nan nan nan nan nan nan nan nan nan nan nan nan nan nan nan nan nan nan nan nan nan nan nan nan nan nan nan nan nan nan nan 26 28 29 nan 25 24 23 nan nan nan 6 9 8 10 12 9 6 6 8 11 11 12 15 16 14 15 17 18 18 14 12 18 18 19 17 9 11 6 7 6 15 12 17 22 17 14 9 4 2 1 4 11 8 7
nan nan nan nan nan nan nan nan nan nan nan nan nan nan nan nan nan nan nan nan nan nan nan nan nan nan nan nan nan nan nan nan nan 16 23 29 28 27 26 22 nan nan nan nan nan 4 5 6 9 6 5 10 8 13 10 7 16 17 15 17 18 17 15 15 15 17 17 15 16 14 11 3 1 8 16 11 15 17 19 13 8 5 7 6 7 9 10 9
nan nan nan nan nan nan nan nan nan nan nan nan nan nan nan nan nan nan nan nan nan nan nan nan nan nan nan nan nan nan nan nan nan 21 24 27 nan 26 26 21 nan nan nan nan nan 3 2 3 5 7 6 7 8 10 11 10 10 19 22 14 15 16 14 17 17 19 19 16 18 13 6 3 2 13 13 14 13 12 15 9 6 10 5 7 9 8 9 11
nan nan nan nan nan nan nan nan nan nan nan nan nan nan nan nan nan nan nan nan nan nan nan nan nan nan nan nan nan nan nan nan 22 22 nan nan nan nan nan nan nan nan nan nan nan nan nan 1 5 6 5 6 9 11 12 11 10 14 16 15 17 17 14 16 20 20 21 18 16 11 5 6 8 9 12 15 18 20 20 9 8 10 6 5 11 10 12 14
nan nan nan nan nan nan nan nan nan nan nan nan nan nan nan nan nan nan nan nan nan nan nan nan nan nan nan nan nan nan nan nan nan nan nan nan nan nan nan nan nan nan nan nan 4 nan 5 5 5 3 2 6 7 8 14 12 9 12 17 13 18 20 19 16 19 21 21 16 10 8 7 9 6 8 15 20 21 18 15 11 7 8 9 9 10 12 15 18
nan nan nan nan nan nan nan nan nan nan nan nan nan nan nan nan nan nan nan nan nan nan nan nan nan nan nan nan nan nan nan nan nan nan nan nan nan nan nan nan nan nan nan nan 3 nan 5 5 8 5 4 4 4 5 11 15 9 10 13 12 14 18 14 14 21 22 20 16 9 8 10 7 7 6 17 17 14 12 12 12 9 11 12 13 13 15 16 23
nan nan nan nan nan nan nan nan nan nan nan nan nan nan nan nan nan nan nan nan nan nan nan nan nan nan nan nan nan nan nan nan nan nan nan nan nan nan nan nan nan nan nan nan 4 2 5 5 2 8 5 5 6 7 6 8 11 8 12 15 11 13 14 13 16 21 19 16 10 5 8 6 4 7 14 18 14 16 15 14 13 12 9 10 11 14 17 23
nan nan nan nan nan nan nan nan nan nan nan nan nan nan nan nan nan nan nan nan nan nan nan nan nan nan nan nan nan nan nan nan nan nan nan nan nan nan nan nan nan nan nan nan 6 8 6 7 9 5 4 7 5 5 4 7 8 10 12 14 14 12 15 16 19 22 17 16 11 4 5 8 8 12 16 18 18 17 12 11 11 14 12 13 14 16 15 20
nan nan nan nan nan nan nan nan nan nan nan nan nan nan nan nan nan nan nan nan nan nan nan nan nan nan nan nan nan nan nan nan nan nan nan nan nan nan nan nan nan nan nan nan 13 13 12 11 10 6 2 1 6 2 6 5 7 10 9 12 12 nan nan 17 20 21 18 14 10 4 nan 6 10 12 14 16 20 21 15 11 9 12 9 8 11 13 15 18
nan nan nan nan nan nan nan nan nan nan nan nan nan nan nan nan nan nan nan nan nan nan nan nan nan nan nan nan nan nan nan nan nan nan nan nan nan nan nan nan nan nan nan nan 11 12 13 13 9 5 3 3 4 6 5 1 5 8 12 13 13 nan 16 16 18 21 20 17 9 6 4 nan nan 13 12 16 25 22 19 23 24 16 4 5 11 11 14 17
nan nan nan nan nan nan nan nan nan nan nan nan nan nan nan nan nan nan nan nan nan nan nan nan nan nan nan nan nan nan nan nan nan nan nan nan nan nan nan nan nan nan nan nan 10 10 12 10 6 5 2 1 5 5 2 nan nan 7 9 13 14 13 15 17 17 16 18 18 11 8 5 10 10 11 14 20 26 23 23 22 24 20 21 13 12 16 15 17
nan nan nan nan nan nan nan nan nan nan nan nan nan nan nan nan nan nan nan nan nan nan nan nan nan nan nan nan nan nan nan nan nan nan nan nan nan nan nan nan nan nan nan 11 11 nan nan 8 nan nan nan nan 3 2 5 8 nan nan 8 10 nan 12 14 16 nan 18 16 17 18 12 9 8 13 13 16 24 26 29 29 26 26 26 24 12 14 15 16 17
nan nan nan nan nan nan nan nan nan nan nan nan nan nan nan nan nan nan nan nan nan nan nan nan nan nan nan nan nan nan nan nan nan nan nan nan nan nan nan nan nan nan nan 13 13 nan nan nan nan nan nan nan nan nan nan 14 11 11 10 12 12 nan 12 14 18 20 21 nan nan 12 7 3 8 10 14 22 31 29 28 25 25 26 24 nan 16 nan nan nan
nan nan nan nan nan nan nan nan nan nan nan nan nan nan nan nan nan nan nan nan nan nan nan nan nan nan nan nan nan nan nan nan nan nan nan nan nan 12 9 11 14 nan nan nan nan nan nan nan nan nan nan nan nan 11 13 15 14 9 8 9 15 15 11 12 19 23 nan nan nan nan nan 7 7 6 9 19 30 31 29 26 27 26 25 nan nan nan nan nan
nan nan nan nan nan nan nan nan nan nan nan nan nan nan nan nan nan nan nan nan nan nan nan nan nan nan nan nan nan nan nan nan nan nan nan nan nan 16 10 10 13 11 9 nan nan nan 9 nan nan nan nan nan nan nan 8 10 11 12 11 13 14 15 nan 15 19 nan nan nan nan nan 13 10 5 7 9 17 29 30 27 28 27 28 26 27 nan nan nan nan
nan nan nan nan nan nan nan nan nan nan nan nan nan nan nan nan nan nan nan nan nan nan nan nan nan nan nan nan nan nan nan nan nan nan nan nan nan 12 11 10 14 10 12 nan nan nan nan nan nan nan nan nan nan nan nan 13 11 12 14 15 13 11 13 11 nan 17 nan nan nan 19 nan nan nan 3 2 15 24 27 28 27 27 29 31 30 nan nan nan nan
nan nan nan nan nan nan nan nan nan nan nan nan nan nan nan nan nan nan nan nan nan nan nan nan nan nan nan nan nan nan nan nan nan nan nan 15 15 8 13 10 nan nan nan nan nan nan nan nan nan nan nan nan nan nan nan 13 11 13 nan nan 14 14 18 11 12 15 16 21 nan 19 17 16 11 4 5 19 24 27 30 29 30 30 32 33 32 nan nan nan
nan nan nan nan nan nan nan nan nan nan nan nan nan nan nan nan nan nan nan nan nan nan nan nan nan nan nan nan nan nan nan nan nan nan nan 17 13 14 12 10 nan nan nan nan nan nan nan nan nan nan nan nan nan nan nan 10 13 13 16 nan nan nan nan nan 20 17 18 16 21 17 nan nan 12 8 3 16 21 nan 27 32 30 29 31 33 33 33 nan nan
nan nan nan nan nan nan nan nan nan nan nan nan nan nan nan nan nan nan nan nan nan nan nan nan nan nan nan nan nan nan nan nan nan nan nan nan 15 18 13 16 nan nan nan nan nan nan nan nan nan nan nan nan nan nan 8 12 nan nan 11 nan nan nan 16 17 23 21 16 17 21 24 nan nan 13 13 3 12 20 23 29 nan 26 29 33 32 28 26 nan nan
nan nan nan nan nan nan nan nan nan nan nan nan nan nan nan nan nan nan nan nan nan nan nan nan nan nan nan nan nan nan nan nan nan nan nan nan 17 15 19 16 nan nan nan nan nan nan nan nan nan nan nan nan nan nan nan nan nan nan nan 17 14 19 21 24 25 19 nan 20 24 23 nan nan 9 10 6 4 10 15 22 21 23 30 35 31 26 24 24 nan
nan nan nan nan nan nan nan nan nan nan nan nan nan nan nan nan nan nan nan nan nan nan nan nan nan nan nan nan nan nan nan nan nan nan nan nan 16 nan nan nan nan nan nan nan nan nan nan nan nan nan nan nan nan nan nan nan nan nan nan nan 22 24 23 24 25 nan nan 16 12 18 nan nan nan nan nan 4 3 7 13 18 25 30 31 28 26 22 21 nan
nan nan nan nan nan nan nan nan nan nan nan nan nan nan nan nan nan nan nan nan nan nan nan nan nan nan nan nan nan nan nan nan nan nan 13 nan nan nan nan nan nan nan nan nan nan nan nan nan nan nan nan nan nan nan nan nan nan nan nan 18 20 22 22 22 20 17 16 16 15 nan 13 nan nan nan nan 8 3 nan 10 17 25 28 27 25 24 22 20 nan
nan nan nan nan nan nan nan nan nan nan nan nan nan nan nan nan nan nan nan nan nan nan nan nan nan nan nan nan nan nan nan nan nan nan 17 nan nan nan nan nan nan nan nan nan nan nan nan nan nan nan nan nan nan nan nan nan nan nan nan 20 16 15 14 16 14 13 13 13 16 20 19 nan nan nan nan 5 nan nan nan 13 24 25 23 22 22 22 21 19
nan nan nan nan nan nan nan nan nan nan nan nan nan nan nan nan nan nan nan nan nan nan nan nan nan nan nan nan nan nan nan nan nan nan nan nan nan nan nan nan nan nan nan nan nan nan nan nan nan nan nan nan nan nan nan nan nan nan 16 15 10 10 10 10 9 9 nan nan nan 20 25 nan 9 12 14 9 12 nan nan nan nan 26 26 23 22 21 21 nan
nan nan nan nan nan nan nan nan nan nan nan nan nan nan nan nan nan nan nan nan nan nan nan nan nan nan nan nan nan nan nan nan nan nan nan nan nan nan nan nan nan nan nan nan nan nan nan nan nan nan nan nan nan nan nan nan nan nan nan 10 13 9 9 8 6 7 nan nan nan nan 25 18 nan nan 11 17 16 nan nan 6 11 17 20 21 21 21 21 nan
nan nan nan nan nan nan nan nan nan nan nan nan nan nan nan nan nan nan nan nan nan nan nan nan nan nan nan nan nan nan nan nan nan nan nan nan nan nan nan nan nan nan nan nan nan nan nan nan nan nan nan nan nan nan nan nan nan nan nan nan nan 8 8 nan nan 9 nan nan 9 10 17 9 nan nan 11 20 13 7 5 9 10 11 14 15 18 20 20 nan
nan nan nan nan nan nan nan nan nan nan nan nan nan nan nan nan nan nan nan nan nan nan nan nan nan nan nan nan nan nan nan nan nan nan 10 nan nan nan nan nan nan nan nan nan nan nan nan nan nan nan nan nan nan nan nan nan nan nan nan nan nan nan nan nan nan nan nan nan nan nan 13 6 nan nan nan 13 19 13 6 12 15 11 11 12 15 18 20 nan
nan nan nan nan nan nan nan nan nan nan nan nan nan nan nan nan nan 10 nan nan nan nan nan nan nan nan nan nan nan nan nan nan nan nan nan nan nan nan nan nan nan nan nan nan nan nan nan nan nan nan nan nan nan nan nan nan nan nan nan nan nan nan nan nan nan nan nan nan nan 9 5 nan nan nan nan nan nan 14 6 10 14 14 16 18 18 19 19 nan
nan nan nan nan nan nan nan nan nan nan nan nan nan nan nan nan nan nan nan nan nan nan nan nan nan nan nan nan nan nan nan nan nan nan nan nan nan nan nan nan nan nan nan nan nan nan nan nan nan nan nan nan nan nan nan nan nan nan nan nan nan nan nan nan nan nan nan nan nan 4 nan 2 nan nan nan nan nan nan 7 5 12 nan nan nan nan 20 17 17
nan nan nan nan nan nan nan nan nan nan nan nan nan nan nan nan nan nan nan nan nan nan nan nan nan nan nan nan nan nan nan nan nan nan nan nan nan nan nan nan nan nan nan nan nan nan nan nan nan nan nan nan nan nan nan nan nan nan nan nan nan nan nan nan 10 9 10 nan nan nan nan nan nan nan nan nan nan nan 8 4 nan 15 16 17 19 18 17 16
nan nan nan nan nan nan nan nan nan nan nan nan nan nan nan nan nan nan nan nan nan nan nan nan nan nan nan nan nan nan nan nan nan nan nan nan nan nan nan nan nan nan nan nan nan nan nan nan nan nan nan nan nan nan nan nan nan nan nan nan nan 12 11 nan nan nan nan nan nan 12 nan nan nan nan nan nan nan nan nan 6 6 9 10 14 17 17 16 15
nan nan nan nan nan nan nan nan nan nan nan nan nan nan nan nan nan nan nan nan nan nan nan nan nan nan nan nan nan nan nan nan nan nan nan nan nan nan nan nan nan nan nan nan nan nan nan nan nan nan nan nan nan nan nan nan nan nan nan nan nan nan 7 nan nan nan nan nan nan nan nan nan nan nan nan nan nan nan nan nan 5 5 5 8 11 12 14 16
nan nan nan nan nan nan nan nan nan nan nan nan nan nan nan nan nan nan nan nan nan nan nan nan nan nan nan nan nan nan nan nan nan nan nan nan nan nan nan nan nan nan nan nan nan nan nan nan nan nan nan nan nan nan nan nan nan nan nan nan 11 nan nan nan nan nan nan nan nan nan nan nan nan nan nan nan nan nan 6 5 6 5 6 7 8 10 11 13
nan nan nan nan nan nan nan nan nan nan nan nan nan nan nan nan nan nan nan nan nan nan nan nan nan nan nan nan nan nan nan nan nan nan nan nan nan nan nan nan nan nan nan nan nan nan nan nan nan nan nan nan nan nan nan nan nan nan nan nan nan nan 9 nan nan 6 nan nan nan nan nan nan nan nan nan nan nan nan 5 5 8 8 8 8 9 10 10 11
nan nan nan nan nan nan nan nan nan nan nan nan nan nan nan nan nan nan nan nan nan nan nan nan nan nan nan nan nan nan nan nan nan nan nan nan nan nan nan nan nan nan nan nan nan nan nan nan nan nan nan nan nan nan nan nan nan nan nan nan nan nan 9 11 8 8 11 nan nan nan nan nan nan nan nan nan nan nan 4 7 10 14 13 11 11 11 10 13
nan nan nan nan nan nan nan nan nan nan nan nan nan nan nan nan nan nan nan nan nan nan nan nan nan nan nan nan nan nan nan nan nan nan nan nan nan nan nan nan nan nan nan nan nan nan nan nan nan nan nan nan nan nan nan nan nan nan nan nan nan nan nan nan nan 5 nan nan nan nan nan nan nan nan nan nan nan nan 7 10 12 13 16 16 14 12 13 12
nan nan nan nan nan nan nan nan nan nan nan nan nan nan nan nan nan nan nan nan nan nan nan nan nan nan nan nan nan nan nan nan nan nan nan nan nan nan nan nan nan nan nan nan nan nan nan nan nan nan nan nan nan nan nan nan nan nan nan nan nan 8 nan nan nan 15 nan 12 nan nan nan nan nan nan nan nan nan nan 12 11 12 15 15 16 16 14 15 15
nan nan nan nan nan nan nan nan nan nan nan nan nan nan nan nan nan nan nan nan nan nan nan nan nan nan nan nan nan nan nan nan nan nan nan nan nan nan nan nan nan nan nan nan nan nan nan nan nan nan nan nan nan nan nan nan nan nan nan nan nan nan nan 14 18 nan nan nan nan nan nan nan nan nan nan nan nan nan nan 15 12 14 15 14 15 17 15 15
nan nan nan nan nan nan nan nan nan nan nan nan nan nan nan nan nan nan nan nan nan nan nan nan nan nan nan nan nan nan nan nan nan nan nan nan nan nan nan nan nan nan nan nan nan nan nan nan nan nan nan nan nan nan nan nan nan nan nan nan 13 19 18 nan 15 nan nan nan nan nan nan nan nan nan nan nan nan nan 20 nan nan nan 15 13 17 17 16 15
nan nan nan nan nan nan nan nan nan nan nan nan nan nan nan nan nan nan nan nan nan nan nan nan nan nan nan nan nan nan nan nan nan nan nan nan nan nan nan nan nan nan nan 18 7 nan nan nan nan nan nan nan nan nan nan nan nan nan nan nan 10 17 nan nan nan nan nan nan nan nan nan nan nan nan nan nan nan nan nan nan 13 19 20 17 17 18 17 17
nan nan nan nan nan nan nan nan nan nan nan nan nan nan nan nan nan nan nan nan nan nan nan nan nan nan nan nan nan nan nan nan nan nan nan nan nan nan nan nan 21 14 18 18 19 nan nan nan nan nan nan nan nan nan nan nan nan nan nan nan nan nan nan nan nan 12 nan nan nan nan nan nan nan nan nan nan nan nan nan nan 17 16 18 nan 15 17 17 18
nan nan nan nan nan nan nan nan nan nan nan nan nan nan nan nan nan nan nan nan nan nan nan nan nan nan nan nan nan nan nan nan nan nan nan nan nan nan nan nan nan 28 22 nan nan nan nan nan nan nan nan nan nan nan nan nan nan nan nan nan nan nan nan nan nan nan nan nan nan nan nan nan nan nan nan nan nan nan 9 2 11 15 18 17 17 17 16 17
nan nan nan nan nan nan nan nan nan nan nan nan nan nan nan nan nan nan nan nan nan nan nan nan nan nan nan nan nan nan nan nan nan nan nan nan nan nan nan nan nan nan nan nan nan nan nan nan nan nan nan nan nan nan nan nan nan nan nan nan nan nan nan nan nan 8 19 nan nan nan nan nan nan nan nan nan nan 11 6 9 11 17 19 16 15 14 14 17
nan nan nan nan nan nan nan nan nan nan nan nan nan nan nan nan nan nan nan nan nan nan nan nan nan nan nan nan nan nan nan nan nan nan nan nan nan nan nan nan nan nan nan nan nan nan nan nan 22 nan nan nan nan nan nan nan nan nan nan nan nan nan nan nan 2 5 11 nan nan nan nan nan nan nan nan nan nan 7 8 9 5 13 16 17 18 18 17 18
nan nan nan nan nan nan nan nan nan nan nan nan nan nan nan nan nan nan nan nan nan nan nan nan nan nan nan nan nan nan nan nan nan nan nan nan nan nan nan 25 nan nan nan nan nan nan nan nan nan nan nan nan nan nan nan nan nan nan nan nan nan nan nan nan nan 7 9 9 nan nan nan nan nan nan nan nan 8 6 8 7 6 8 11 16 19 19 19 20
nan nan nan nan nan nan nan nan nan nan nan nan nan nan nan nan nan nan nan nan nan nan nan nan nan nan nan nan nan nan nan nan nan nan nan nan nan nan nan nan nan nan nan nan nan nan nan nan nan nan nan nan nan nan nan nan nan nan nan nan nan nan nan nan nan nan 8 nan nan nan nan nan nan nan nan 9 8 3 4 6 8 7 11 14 16 18 20 22
Wind_Direction
nan nan nan nan nan nan nan nan nan nan nan nan nan nan nan nan nan nan nan nan nan nan nan nan nan nan nan nan nan nan nan nan nan nan nan nan nan nan nan nan 315 313 310 307 305 321 346 354 350 334 342 357 16 16 23 13 11 18 16 1 5 9 354 358 331 316 282 263 243 253 276 266 161 229 206 209 194 209 247 263 266 257 267 282 222 236 213 189
nan nan nan nan nan nan nan nan nan nan nan nan nan nan nan nan nan nan nan nan nan nan nan nan nan nan nan nan nan nan nan nan nan nan nan nan nan nan nan nan nan 314 307 nan nan nan 334 351 343 335 345 19 10 16 352 5 5 10 11 359 11 359 17 341 327 322 301 14 114 244 258 266 242 234 218 221 223 251 271 258 276 271 284 243 204 249 194 203
nan nan nan nan nan nan nan nan nan nan nan nan nan nan nan nan nan nan nan nan nan nan nan nan nan nan nan nan nan nan nan nan nan nan nan nan nan nan nan nan nan 316 313 nan nan nan nan 351 337 339 3 6 26 10 6 358 359 22 356 7 9 5 7 352 328 338 349 345 35 182 240 271 260 258 226 213 234 242 310 292 263 301 319 311 173 201 188 195
nan nan nan nan nan nan nan nan nan nan nan nan nan nan nan nan nan nan nan nan nan nan nan nan nan nan nan nan nan nan nan nan nan nan nan nan nan nan 300 nan nan 318 303 nan nan nan 339 336 340 352 1 13 25 12 6 11 9 8 359 6 7 355 348 360 343 342 347 344 38 150 233 244 264 243 253 238 254 231 216 230 315 332 342 14 122 155 157 174
nan nan nan nan nan nan nan nan nan nan nan nan nan nan nan nan nan nan nan nan nan nan nan nan nan nan nan nan nan nan nan nan nan nan nan 281 nan nan 297 300 311 310 nan nan nan nan 329 344 346 4 13 14 7 9 28 357 9 350 16 17 12 351 350 340 342 338 328 331 359 82 242 230 238 239 248 236 272 260 258 240 196 293 343 33 100 139 142 152
nan nan nan nan nan nan nan nan nan nan nan nan nan nan nan nan nan nan nan nan nan nan nan nan nan nan nan nan nan nan nan nan nan nan 236 277 300 nan 293 298 312 nan nan nan 310 317 335 353 355 4 21 360 10 12 22 359 353 16 19 30 28 22 8 331 328 329 325 330 346 2 339 222 226 227 225 210 223 222 229 229 209 239 351 49 141 158 130 138
nan nan nan nan nan nan nan nan nan nan nan nan nan nan nan nan nan nan nan nan nan nan nan nan nan nan nan nan nan nan nan nan nan nan 252 276 291 nan 286 296 302 nan nan nan 294 307 358 4 359 6 4 1 25 15 30 359 12 14 28 11 22 12 16 355 343 334 333 326 344 344 247 245 200 204 230 208 206 203 214 234 213 213 236 264 125 134 133 139
nan nan nan nan nan nan nan nan nan nan nan nan nan nan nan nan nan nan nan nan nan nan nan nan nan nan nan nan nan nan nan nan nan 259 266 275 281 280 279 276 nan nan nan nan nan 310 337 21 351 349 8 1 20 0 357 14 10 20 31 22 20 9 8 356 352 343 339 338 326 317 293 309 42 225 236 219 215 209 183 230 214 218 218 184 157 139 141 137
nan nan nan nan nan nan nan nan nan nan nan nan nan nan nan nan nan nan nan nan nan nan nan nan nan nan nan nan nan nan nan nan nan 274 275 274 nan 273 274 270 nan nan nan nan nan 244 196 30 12 339 40 18 23 12 2 1 46 20 31 18 16 12 2 357 352 347 344 328 323 330 332 298 252 217 207 221 225 202 191 233 228 231 260 159 154 136 134 134
nan nan nan nan nan nan nan nan nan nan nan nan nan nan nan nan nan nan nan nan nan nan nan nan nan nan nan nan nan nan nan nan 261 276 nan nan nan nan nan nan nan nan nan nan nan nan nan 179 353 359 354 21 345 11 348 354 21 8 19 21 26 25 10 2 354 348 345 337 341 338 305 253 241 225 197 221 203 202 188 218 218 224 215 169 154 139 128 131
nan nan nan nan nan nan nan nan nan nan nan nan nan nan nan nan nan nan nan nan nan nan nan nan nan nan nan nan nan nan nan nan nan nan nan nan nan nan nan nan nan nan nan nan 267 nan 94 116 282 336 55 39 342 18 354 13 0 22 26 32 26 21 18 3 352 353 344 343 337 312 248 232 263 228 204 218 210 193 196 217 227 201 180 182 159 137 141 140
nan nan nan nan nan nan nan nan nan nan nan nan nan nan nan nan nan nan nan nan nan nan nan nan nan nan nan nan nan nan nan nan nan nan nan nan nan nan nan nan nan nan nan nan 278 nan 118 134 287 345 50 318 19 358 34 26 1 25 18 33 18 357 358 358 1 356 350 352 335 297 262 232 259 225 227 233 217 199 208 212 207 199 172 185 173 164 142 144
nan nan nan nan nan nan nan nan nan nan nan nan nan nan nan nan nan nan nan nan nan nan nan nan nan nan nan nan nan nan nan nan nan nan nan nan nan nan nan nan nan nan nan nan 269 176 130 115 40 20 354 334 350 358 8 344 6 16 17 19 26 355 2 9 360 352 352 358 337 266 214 225 228 213 233 215 216 203 220 193 198 179 186 182 170 162 150 137
nan nan nan nan nan nan nan nan nan nan nan nan nan nan nan nan nan nan nan nan nan nan nan nan nan nan nan nan nan nan nan nan nan nan nan nan nan nan nan nan nan nan nan nan 218 207 150 128 106 93 277 358 27 2 11 7 10 24 20 2 14 4 16 15 3 3 3 360 344 249 224 220 220 223 226 211 207 200 216 196 195 172 173 186 186 162 136 123
nan nan nan nan nan nan nan nan nan nan nan nan nan nan nan nan nan nan nan nan nan nan nan nan nan nan nan nan nan nan nan nan nan nan nan nan nan nan nan nan nan nan nan nan 206 197 170 137 120 113 135 285 292 343 39 1 26 23 5 21 19 nan nan 16 8 3 13 10 348 282 nan 207 207 238 212 206 203 186 205 205 200 164 162 188 180 136 125 130
nan nan nan nan nan nan nan nan nan nan nan nan nan nan nan nan nan nan nan nan nan nan nan nan nan nan nan nan nan nan nan nan nan nan nan nan nan nan nan nan nan nan nan nan 198 184 161 152 128 108 162 203 320 1 44 322 25 14 3 24 23 nan 24 13 13 17 6 356 346 325 249 nan nan 231 214 206 193 183 193 197 178 175 149 192 165 136 130 134
nan nan nan nan nan nan nan nan nan nan nan nan nan nan nan nan nan nan nan nan nan nan nan nan nan nan nan nan nan nan nan nan nan nan nan nan nan nan nan nan nan nan nan nan 196 178 155 156 172 142 124 302 295 317 51 nan nan 30 6 8 15 24 16 14 16 11 13 7 357 343 284 194 209 232 215 218 195 199 199 194 187 177 170 198 162 142 138 137
nan nan nan nan nan nan nan nan nan nan nan nan nan nan nan nan nan nan nan nan nan nan nan nan nan nan nan nan nan nan nan nan nan nan nan nan nan nan nan nan nan nan nan 215 187 nan nan 168 nan nan nan nan 275 350 357 37 nan nan 9 9 nan 13 3 12 nan 5 357 7 348 341 296 221 207 206 224 212 196 199 193 189 182 178 170 179 148 140 140 142
nan nan nan nan nan nan nan nan nan nan nan nan nan nan nan nan nan nan nan nan nan nan nan nan nan nan nan nan nan nan nan nan nan nan nan nan nan nan nan nan nan nan nan 227 200 nan nan nan nan nan nan nan nan nan nan 30 21 19 17 9 359 nan 9 8 0 352 349 nan nan 2 339 253 197 218 234 202 189 195 186 183 177 170 165 nan 157 nan nan nan
nan nan nan nan nan nan nan nan nan nan nan nan nan nan nan nan nan nan nan nan nan nan nan nan nan nan nan nan nan nan nan nan nan nan nan nan nan 255 237 231 241 nan nan nan nan nan nan nan nan nan nan nan nan 42 31 36 38 13 352 355 2 356 9 359 342 357 nan nan nan nan nan 344 284 222 234 197 187 182 180 177 172 167 167 nan nan nan nan nan
nan nan nan nan nan nan nan nan nan nan nan nan nan nan nan nan nan nan nan nan nan nan nan nan nan nan nan nan nan nan nan nan nan nan nan nan nan 248 231 235 241 241 225 nan nan nan 204 nan nan nan nan nan nan nan 34 41 36 7 5 5 2 349 nan 4 347 nan nan nan nan nan 346 343 328 267 196 190 183 176 173 171 166 158 160 166 nan nan nan nan
nan nan nan nan nan nan nan nan nan nan nan nan nan nan nan nan nan nan nan nan nan nan nan nan nan nan nan nan nan nan nan nan nan nan nan nan nan 254 238 234 242 241 224 nan nan nan nan nan nan nan nan nan nan nan nan 36 16 13 4 3 355 354 332 331 nan 344 nan nan nan 355 nan nan nan 313 240 191 174 175 168 165 161 158 161 167 nan nan nan nan
nan nan nan nan nan nan nan nan nan nan nan nan nan nan nan nan nan nan nan nan nan nan nan nan nan nan nan nan nan nan nan nan nan nan nan 240 239 228 249 240 nan nan nan nan nan nan nan nan nan nan nan nan nan nan nan 18 7 5 nan nan 2 349 338 1 9 4 11 6 nan 7 344 358 359 25 199 190 181 172 163 163 159 162 162 163 164 nan nan nan
nan nan nan nan nan nan nan nan nan nan nan nan nan nan nan nan nan nan nan nan nan nan nan nan nan nan nan nan nan nan nan nan nan nan nan 241 234 233 227 252 nan nan nan nan nan nan nan nan nan nan nan nan nan nan nan 14 27 21 1 nan nan nan nan nan 8 4 1 357 354 351 nan nan 7 5 174 189 183 nan 171 174 165 160 156 154 156 156 nan nan
nan nan nan nan nan nan nan nan nan nan nan nan nan nan nan nan nan nan nan nan nan nan nan nan nan nan nan nan nan nan nan nan nan nan nan nan 238 231 212 226 nan nan nan nan nan nan nan nan nan nan nan nan nan nan 28 15 nan nan 357 nan nan nan 316 331 341 346 359 3 7 359 nan nan 20 16 29 195 189 177 181 nan 153 149 149 152 154 152 nan nan
nan nan nan nan nan nan nan nan nan nan nan nan nan nan nan nan nan nan nan nan nan nan nan nan nan nan nan nan nan nan nan nan nan nan nan nan 230 226 221 215 nan nan nan nan nan nan nan nan nan nan nan nan nan nan nan nan nan nan nan 346 342 313 327 338 345 339 nan 356 5 12 nan nan 13 35 32 219 202 190 168 152 138 143 145 150 150 153 151 nan
nan nan nan nan nan nan nan nan nan nan nan nan nan nan nan nan nan nan nan nan nan nan nan nan nan nan nan nan nan nan nan nan nan nan nan nan 230 nan nan nan nan nan nan nan nan nan nan nan nan nan nan nan nan nan nan nan nan nan nan nan 313 324 334 346 345 nan nan 341 340 1 nan nan nan nan nan 322 245 184 160 137 135 141 142 146 147 147 150 nan
nan nan nan nan nan nan nan nan nan nan nan nan nan nan nan nan nan nan nan nan nan nan nan nan nan nan nan nan nan nan nan nan nan nan 231 nan nan nan nan nan nan nan nan nan nan nan nan nan nan nan nan nan nan nan nan nan nan nan nan 303 326 332 343 340 341 348 346 332 359 nan 14 nan nan nan nan 319 318 nan 135 134 131 137 137 143 144 144 145 nan
nan nan nan nan nan nan nan nan nan nan nan nan nan nan nan nan nan nan nan nan nan nan nan nan nan nan nan nan nan nan nan nan nan nan 220 nan nan nan nan nan nan nan nan nan nan nan nan nan nan nan nan nan nan nan nan nan nan nan nan 308 327 334 317 320 327 334 353 349 6 6 2 nan nan nan nan 22 nan nan nan 121 126 134 139 144 144 144 143 154
nan nan nan nan nan nan nan nan nan nan nan nan nan nan nan nan nan nan nan nan nan nan nan nan nan nan nan nan nan nan nan nan nan nan nan nan nan nan nan nan nan nan nan nan nan nan nan nan nan nan nan nan nan nan nan nan nan nan 266 266 253 256 277 294 313 336 nan nan nan 357 357 nan 30 31 17 10 53 nan nan nan nan 144 149 150 147 145 147 nan
nan nan nan nan nan nan nan nan nan nan nan nan nan nan nan nan nan nan nan nan nan nan nan nan nan nan nan nan nan nan nan nan nan nan nan nan nan nan nan nan nan nan nan nan nan nan nan nan nan nan nan nan nan nan nan nan nan nan nan 270 263 248 255 278 317 321 nan nan nan nan 353 354 nan nan 32 39 46 nan nan 134 139 137 139 145 147 145 144 nan
nan nan nan nan nan nan nan nan nan nan nan nan nan nan nan nan nan nan nan nan nan nan nan nan nan nan nan nan nan nan nan nan nan nan nan nan nan nan nan nan nan nan nan nan nan nan nan nan nan nan nan nan nan nan nan nan nan nan nan nan nan 284 280 nan nan 346 nan nan 7 335 333 339 nan nan 29 33 41 13 61 141 136 125 129 142 147 142 148 nan
nan nan nan nan nan nan nan nan nan nan nan nan nan nan nan nan nan nan nan nan nan nan nan nan nan nan nan nan nan nan nan nan nan nan 244 nan nan nan nan nan nan nan nan nan nan nan nan nan nan nan nan nan nan nan nan nan nan nan nan nan nan nan nan nan nan nan nan nan nan nan 340 20 nan nan nan 29 35 25 46 132 145 138 132 139 152 154 153 nan
nan nan nan nan nan nan nan nan nan nan nan nan nan nan nan nan nan 165 nan nan nan nan nan nan nan nan nan nan nan nan nan nan nan nan nan nan nan nan nan nan nan nan nan nan nan nan nan nan nan nan nan nan nan nan nan nan nan nan nan nan nan nan nan nan nan nan nan nan nan 291 289 nan nan nan nan nan nan 28 60 138 161 165 154 157 169 171 158 nan
nan nan nan nan nan nan nan nan nan nan nan nan nan nan nan nan nan nan nan nan nan nan nan nan nan nan nan nan nan nan nan nan nan nan nan nan nan nan nan nan nan nan nan nan nan nan nan nan nan nan nan nan nan nan nan nan nan nan nan nan nan nan nan nan nan nan nan nan nan 168 nan 183 nan nan nan nan nan nan 56 132 184 nan nan nan nan 166 155 156
nan nan nan nan nan nan nan nan nan nan nan nan nan nan nan nan nan nan nan nan nan nan nan nan nan nan nan nan nan nan nan nan nan nan nan nan nan nan nan nan nan nan nan nan nan nan nan nan nan nan nan nan nan nan nan nan nan nan nan nan nan nan nan nan 282 304 288 nan nan nan nan nan nan nan nan nan nan nan 42 100 nan 186 177 167 161 157 153 154
nan nan nan nan nan nan nan nan nan nan nan nan nan nan nan nan nan nan nan nan nan nan nan nan nan nan nan nan nan nan nan nan nan nan nan nan nan nan nan nan nan nan nan nan nan nan nan nan nan nan nan nan nan nan nan nan nan nan nan nan nan 251 272 nan nan nan nan nan nan 221 nan nan nan nan nan nan nan nan nan 76 139 181 176 160 159 156 154 154
nan nan nan nan nan nan nan nan nan nan nan nan nan nan nan nan nan nan nan nan nan nan nan nan nan nan nan nan nan nan nan nan nan nan nan nan nan nan nan nan nan nan nan nan nan nan nan nan nan nan nan nan nan nan nan nan nan nan nan nan nan nan 249 nan nan nan nan nan nan nan nan nan nan nan nan nan nan nan nan nan 127 145 142 145 158 157 160 166
nan nan nan nan nan nan nan nan nan nan nan nan nan nan nan nan nan nan nan nan nan nan nan nan nan nan nan nan nan nan nan nan nan nan nan nan nan nan nan nan nan nan nan nan nan nan nan nan nan nan nan nan nan nan nan nan nan nan nan nan 231 nan nan nan nan nan nan nan nan nan nan nan nan nan nan nan nan nan 94 80 93 117 129 153 167 172 178 175
nan nan nan nan nan nan nan nan nan nan nan nan nan nan nan nan nan nan nan nan nan nan nan nan nan nan nan nan nan nan nan nan nan nan nan nan nan nan nan nan nan nan nan nan nan nan nan nan nan nan nan nan nan nan nan nan nan nan nan nan nan nan 263 nan nan 288 nan nan nan nan nan nan nan nan nan nan nan nan 131 125 144 135 138 152 168 176 186 186
nan nan nan nan nan nan nan nan nan nan nan nan nan nan nan nan nan nan nan nan nan nan nan nan nan nan nan nan nan nan nan nan nan nan nan nan nan nan nan nan nan nan nan nan nan nan nan nan nan nan nan nan nan nan nan nan nan nan nan nan nan nan 275 269 268 270 282 nan nan nan nan nan nan nan nan nan nan nan 204 220 185 156 144 151 165 171 182 188
nan nan nan nan nan nan nan nan nan nan nan nan nan nan nan nan nan nan nan nan nan nan nan nan nan nan nan nan nan nan nan nan nan nan nan nan nan nan nan nan nan nan nan nan nan nan nan nan nan nan nan nan nan nan nan nan nan nan nan nan nan nan nan nan nan 298 nan nan nan nan nan nan nan nan nan nan nan nan 218 235 220 193 162 154 160 169 175 181
nan nan nan nan nan nan nan nan nan nan nan nan nan nan nan nan nan nan nan nan nan nan nan nan nan nan nan nan nan nan nan nan nan nan nan nan nan nan nan nan nan nan nan nan nan nan nan nan nan nan nan nan nan nan nan nan nan nan nan nan nan 301 nan nan nan 313 nan 270 nan nan nan nan nan nan nan nan nan nan 221 219 221 204 182 163 160 166 171 175
nan nan nan nan nan nan nan nan nan nan nan nan nan nan nan nan nan nan nan nan nan nan nan nan nan nan nan nan nan nan nan nan nan nan nan nan nan nan nan nan nan nan nan nan nan nan nan nan nan nan nan nan nan nan nan nan nan nan nan nan nan nan nan 281 289 nan nan nan nan nan nan nan nan nan nan nan nan nan nan 206 197 193 183 168 163 160 162 163
nan nan nan nan nan nan nan nan nan nan nan nan nan nan nan nan nan nan nan nan nan nan nan nan nan nan nan nan nan nan nan nan nan nan nan nan nan nan nan nan nan nan nan nan nan nan nan nan nan nan nan nan nan nan nan nan nan nan nan nan 260 259 266 nan 290 nan nan nan nan nan nan nan nan nan nan nan nan nan 206 nan nan nan 182 173 165 158 151 155
nan nan nan nan nan nan nan nan nan nan nan nan nan nan nan nan nan nan nan nan nan nan nan nan nan nan nan nan nan nan nan nan nan nan nan nan nan nan nan nan nan nan nan 322 250 nan nan nan nan nan nan nan nan nan nan nan nan nan nan nan 221 250 nan nan nan nan nan nan nan nan nan nan nan nan nan nan nan nan nan nan 184 169 171 173 171 158 153 156
nan nan nan nan nan nan nan nan nan nan nan nan nan nan nan nan nan nan nan nan nan nan nan nan nan nan nan nan nan nan nan nan nan nan nan nan nan nan nan nan 200 220 290 286 291 nan nan nan nan nan nan nan nan nan nan nan nan nan nan nan nan nan nan nan nan 1 nan nan nan nan nan nan nan nan nan nan nan nan nan nan 192 183 172 nan 180 166 161 165
nan nan nan nan nan nan nan nan nan nan nan nan nan nan nan nan nan nan nan nan nan nan nan nan nan nan nan nan nan nan nan nan nan nan nan nan nan nan nan nan nan 203 220 nan nan nan nan nan nan nan nan nan nan nan nan nan nan nan nan nan nan nan nan nan nan nan nan nan nan nan nan nan nan nan nan nan nan nan 339 173 200 206 201 198 200 187 173 173
nan nan nan nan nan nan nan nan nan nan nan nan nan nan nan nan nan nan nan nan nan nan nan nan nan nan nan nan nan nan nan nan nan nan nan nan nan nan nan nan nan nan nan nan nan nan nan nan nan nan nan nan nan nan nan nan nan nan nan nan nan nan nan nan nan 331 342 nan nan nan nan nan nan nan nan nan nan 308 300 248 221 213 208 213 215 208 200 195
nan nan nan nan nan nan nan nan nan nan nan nan nan nan nan nan nan nan nan nan nan nan nan nan nan nan nan nan nan nan nan nan nan nan nan nan nan nan nan nan nan nan nan nan nan nan nan nan 220 nan nan nan nan nan nan nan nan nan nan nan nan nan nan nan 217 356 349 nan nan nan nan nan nan nan nan nan nan 297 274 265 222 203 214 224 220 216 220 213
nan nan nan nan nan nan nan nan nan nan nan nan nan nan nan nan nan nan nan nan nan nan nan nan nan nan nan nan nan nan nan nan nan nan nan nan nan nan nan 198 nan nan nan nan nan nan nan nan nan nan nan nan nan nan nan nan nan nan nan nan nan nan nan nan nan 296 312 332 nan nan nan nan nan nan nan nan 259 299 314 288 238 207 207 228 224 220 231 231
nan nan nan nan nan nan nan nan nan nan nan nan nan nan nan nan nan nan nan nan nan nan nan nan nan nan nan nan nan nan nan nan nan nan nan nan nan nan nan nan nan nan nan nan nan nan nan nan nan nan nan nan nan nan nan nan nan nan nan nan nan nan nan nan nan nan 352 nan nan nan nan nan nan nan nan 306 300 355 317 281 257 233 193 213 228 228 228 235